Regional Weather Roundup
Issued by NWS

Home | Current Version | Previous Version | Text Only | Print | Product List | Glossary On
Versions: 1 2 3 4 5 6 7 8 9 10 11 12 13 14 15 16 17 18 19 20 21 22 23 24 25 26 27
000
ASUS45 KTFX 241710
RWRMT
MONTANA REGIONAL WEATHER ROUNDUP
NATIONAL WEATHER SERVICE GREAT FALLS MT
1100 AM MDT MON JUL 24 2017

NOTE: "FAIR" INDICATES FEW OR NO CLOUDS BELOW 12000 FEET WITH NO
SIGNIFICANT WEATHER AND/OR OBSTRUCTIONS TO VISIBILITY.

MTZ001>007-043-241800-
WEST OF THE DIVIDE

CITY           SKY/WX    TMP DP  RH WIND       PRES   REMARKS
KALISPELL      SUNNY     79  46  31 NE5       29.90S
MISSOULA       SUNNY     81  49  32 VRB3      29.93F
BUTTE          MOSUNNY   77  42  28 N7        30.08F
MULLAN PASS    SUNNY     67  39  35 CALM      30.10R
ANACONDA         N/A     79  41  25 SW12      30.03F
DEER LODGE       N/A     77  46  33 CALM      30.03F
EUREKA           N/A     70  34  26 MISG      29.95S
HAMILTON         N/A     81  48  32 SE3       29.96F
LIBBY            N/A     77  39  25 N5        29.89F
PLAINS           N/A     81  51  35 CALM      29.91F
$$

MTZ008-052>055-241800-
SOUTHWEST MONTANA

CITY           SKY/WX    TMP DP  RH WIND       PRES   REMARKS
BOZEMAN        MOSUNNY   80  47  31 CALM      30.00F
DILLON         PTSUNNY   78  54  43 W6        30.05F
W YELLOWSTONE  SUNNY     75  36  23 SW10      30.17F
ENNIS          SUNNY     82  37  20 SW6       30.11S
THREE FORKS      N/A     80  46  30 CALM      29.98F
TWIN BRIDGES     N/A     77  44  30 CALM      30.03F
$$

MTZ009-010-012-014-046-048-049-054-241800-
EAST SLOPES AND CENTRAL MONTANA

CITY           SKY/WX    TMP DP  RH WIND       PRES   REMARKS
CUT BANK       SUNNY     62  36  37 VRB6      30.01F
GREAT FALLS    SUNNY     64  43  46 NW7       30.00F
MALMSTROM AFB  SUNNY     61  45  55 NW6       30.00F
HELENA         MOSUNNY   73  49  42 VRB5      29.96F
CHOTEAU          N/A     66  39  37 VRB3      30.01F
CONRAD           N/A     62  44  51 NW3       30.03F
$$

MTZ011-013-016-021-045-047-050-051-241800-
NORTH CENTRAL MONTANA

CITY           SKY/WX    TMP DP  RH WIND       PRES   REMARKS
HAVRE          SUNNY     68  43  40 NW12G21   29.97F
LEWISTOWN      PTSUNNY   65  49  56 W9        30.02F
N BAR RANCH      N/A     75  46  35 N13       30.01F
CHINOOK          N/A     66  45  45 W16G23    29.96S
$$

MTZ017>020-022>027-061-062-241800-
NORTHEAST MONTANA

CITY           SKY/WX    TMP DP  RH WIND       PRES   REMARKS
GLASGOW        MOSUNNY   77  53  43 NW21G26   29.86R
JORDAN           N/A     78  51  38 N20G29    29.87S
SIDNEY         SUNNY     87  60  40 S8        29.76S
WOLF POINT     SUNNY     88  53  30 NW14G22   29.80R
MALTA          SUNNY     75  48  38 NW13G20   29.90S
PLENTYWOOD       N/A     79  55  44 NW13G22   29.79R
POPLAR           N/A     82  54  36 NW16G22   29.79R
SCOBEY           N/A     75  53  46 NW16      29.83R
$$

MTZ028>42-056>058-241800-
SOUTHCENTRAL AND SOUTHEAST MONTANA

CITY           SKY/WX    TMP DP  RH WIND       PRES   REMARKS
BAKER          SUNNY     92  49  22 SW7       29.84S
BILLINGS       MOSUNNY   85  42  22 E13       29.94R
LIVINGSTON     SUNNY     86  40  19 VRB7      29.98F
MILES CITY     SUNNY     91  39  16 N18G24    29.82R
BIG TIMBER     SUNNY     86  43  22 W13G20    29.99S
EKALAKA          N/A     89  51  27 S2        29.86S
FORSYTH          N/A     86  48  26 NW14G24   29.84S
LAUREL           N/A     88  41  19 NW5       29.93S
$$

REGIONAL REPORTS...DAKOTAS

CITY           SKY/WX    TMP DP  RH WIND       PRES   REMARKS
WILLISTON      MOSUNNY   89  55  31 SW10      29.76F
MINOT            N/A     88  56  33 S22G32    29.76F
DICKINSON      SUNNY     86  57  37 S17       29.81F
BEACH            N/A     90  50  25 S14       29.85F
CROSBY           N/A     88  52  29 W14       29.75S
TIOGA            N/A     88  54  31 SW16G22   29.78F
WATFORD CITY     N/A     91  54  27 S14G25    29.76F
BISMARCK       PTSUNNY   77  61  57 S5        29.86R
GRAND FORKS      N/A     77  65  66 S16G23    29.92F
FARGO          MOSUNNY   76  63  64 S17G23      N/A
BUFFALO SD       N/A     84  61  45 S10       29.80F
RAPID CITY     SUNNY     86  54  33 S7        29.86F
$$

REGIONAL REPORTS...WYOMING/IDAHO/WASHINGTON

CITY           SKY/WX    TMP DP  RH WIND       PRES   REMARKS
GILLETTE       SUNNY     92  40  16 W14       29.93S
SHERIDAN       SUNNY     92  43  18 N15G22    29.93S
BUFFALO WY     SUNNY     91  33  12 N15G21    30.00S
CODY           MOSUNNY   81  42  25 NE13      30.03F
YELLOWSTONE LA   N/A     68  48  48 VRB5      30.27F
IDAHO FALLS    MOSUNNY   80  44  27 SW9       30.06S
BOISE          PTSUNNY   82  53  36 W8        29.89F THUNDER
SPOKANE        MOSUNNY   73  30  20 W9        29.98S
$$

REGIONAL REPORTS...ALBERTA

CITY           SKY/WX    TMP DP  RH WIND       PRES   REMARKS
EDMONTON       LGT RAIN  52  50  93 W24G36    29.74F
CALGARY        MOSUNNY   59  39  47 W3        29.96F
LETHBRIDGE     MOSUNNY   63  37  39 VRB7      29.98F
MEDICINE HAT   MOSUNNY   64  43  45 W10G17    29.95S
CARDSTON         N/A     63  36  36 E5          N/A
MILK RIVER       N/A     63  39  42 N3          N/A
$$

REGIONAL REPORTS...SASKATCHEWAN

CITY           SKY/WX    TMP DP  RH WIND       PRES   REMARKS
SWIFT CURRENT  SUNNY     63  46  55 W22G28    29.87S
REGINA         MOSUNNY   73  57  56 NW24      29.76R
SASKATOON      MOSUNNY   66  50  55 W20G32    29.73R
CYPRESS HILLS    N/A     55  39  54 N12G22      N/A
VAL MARIE        N/A     72  41  33 NW20G26     N/A
ROCKGLEN         N/A     70  50  49 NW15G22     N/A
ASSINIBOIA       N/A     50  48  93 W18G29      N/A
$$




USA.gov is the U.S. government's official web portal to all federal, state and local government web resources and services.